Theta_e
361 362 359 355 350 347 344 339 334 328 336 344 343 350 348 345 344 340 336 340 340 339 338 338 338 339 338 339 339 340 340 342 343 346 346 346 347 349
358 359 359 355 352 343 341 338 337 336 332 343 343 344 345 342 345 340 337 339 338 337 335 335 336 335 334 333 333 334 336 337 338 340 341 343 343 344
359 358 356 357 348 346 339 338 339 339 333 342 345 350 343 336 335 338 336 334 334 336 334 333 332 332 330 330 329 329 329 329 330 331 333 337 340 341
357 357 354 351 350 348 342 340 340 343 335 338 343 345 343 335 337 338 332 336 332 336 334 332 330 329 327 326 325 324 323 324 325 325 326 327 328 329
358 355 353 352 348 343 339 339 335 335 337 332 339 342 342 340 337 338 338 338 334 335 333 332 330 329 326 324 323 321 320 320 320 320 321 322 325 326
358 355 353 351 348 345 342 338 336 338 334 335 332 337 336 339 335 332 331 333 331 329 332 330 331 330 328 326 323 321 318 317 317 318 318 319 320 322
358 357 354 353 349 347 339 339 335 336 334 330 329 333 332 333 330 332 329 329 331 334 329 328 328 328 327 328 327 327 321 319 317 316 317 318 319 320
355 357 356 351 346 341 337 338 340 336 329 332 329 326 332 331 331 329 328 328 321 333 331 328 330 328 329 327 329 328 324 323 321 319 318 317 318 319
357 356 354 348 340 336 334 334 334 334 339 336 332 335 336 333 332 331 331 328 325 329 327 321 328 324 329 328 328 329 327 325 324 323 322 320 319 317
359 358 354 346 340 337 335 331 330 330 334 332 334 335 338 343 337 335 334 329 326 328 328 318 327 322 319 320 325 323 321 320 321 323 321 317 314 312
359 358 354 346 335 332 333 330 330 328 330 332 332 328 329 336 338 331 326 323 319 322 326 321 326 323 320 316 317 321 318 316 316 317 318 316 315 311
353 356 339 341 329 327 331 329 326 327 327 326 326 327 331 334 335 332 328 320 318 318 325 319 322 321 315 322 315 314 314 315 313 314 315 315 313 310
344 342 340 324 323 323 326 330 329 330 329 327 325 327 330 328 329 330 332 323 320 320 326 322 320 321 320 319 319 315 314 315 312 311 311 311 311 312
342 341 337 323 321 321 321 324 324 326 328 325 323 323 323 323 325 326 328 332 334 332 328 330 323 322 318 317 318 321 317 321 317 316 317 312 309 310
342 334 327 320 318 318 319 322 322 326 325 321 320 322 321 321 322 324 328 332 332 331 334 331 330 327 325 322 319 323 322 326 321 324 325 321 315 314
329 330 327 322 322 325 323 323 325 325 321 316 315 317 319 319 318 321 321 324 325 327 332 335 334 330 323 324 323 321 323 319 325 326 325 322 323 324
323 324 323 324 321 321 323 325 324 321 320 319 317 320 320 318 323 323 321 323 321 321 323 328 333 332 329 325 320 322 323 323 325 324 325 320 322 322
320 321 320 320 319 319 318 319 319 319 319 319 320 318 319 320 321 322 322 320 320 321 320 323 325 326 326 328 330 323 324 322 323 324 323 318 317 322
328 321 321 321 320 320 319 319 317 319 318 315 316 314 319 320 320 320 319 320 317 319 320 321 321 323 318 316 325 323 324 324 322 323 322 320 317 319
329 325 324 324 323 323 321 320 319 320 318 317 318 319 321 321 319 318 318 316 316 317 318 322 325 324 320 319 320 324 316 325 324 320 322 322 319 320
325 327 326 325 325 323 321 319 318 317 317 317 316 316 316 320 318 316 316 311 313 318 318 320 324 325 328 325 319 319 324 313 322 322 320 317 313 314
323 325 325 325 323 321 320 318 315 313 314 315 315 314 314 318 317 316 316 315 315 319 320 324 324 326 324 320 318 318 321 322 316 315 316 320 316 311
322 322 324 325 323 321 320 316 314 313 313 315 316 318 318 316 316 315 314 315 319 318 323 320 320 320 319 321 318 318 319 319 320 316 317 315 313 314
Wind_Speed
5 4 2 4 3 2 2 2 1 1 3 4 5 4 7 7 12 9 8 12 11 9 8 9 9 8 8 8 8 6 5 5 5 5 3 2 4 4
3 6 3 3 1 2 1 3 2 2 2 4 3 10 9 8 12 8 9 12 13 10 10 9 8 8 9 8 7 7 6 7 6 5 3 3 1 3
4 6 5 3 3 1 3 2 3 1 1 2 7 7 5 7 7 9 10 7 6 12 11 11 9 8 8 7 6 6 6 7 7 7 7 6 5 4
8 6 6 6 5 3 3 5 1 2 1 5 4 3 6 7 6 9 8 9 8 12 13 13 12 10 9 7 6 5 5 6 6 6 6 6 6 6
9 9 7 7 7 5 5 3 4 3 1 3 4 4 2 6 4 2 3 2 10 16 12 12 12 12 10 9 8 6 5 5 5 6 6 6 7 7
11 10 10 9 7 6 4 5 3 3 4 2 3 7 8 7 5 4 3 2 7 10 11 10 12 13 13 12 11 9 7 6 4 3 3 5 4 5
10 10 11 11 13 9 6 6 6 4 4 4 3 2 4 8 9 5 5 5 5 7 8 7 7 6 7 9 8 10 9 7 5 5 3 1 0 1
12 11 10 15 14 14 9 6 10 9 7 4 6 5 5 7 7 5 5 4 4 3 7 7 9 8 7 8 13 13 12 10 9 8 6 5 5 6
14 12 12 9 12 10 10 10 7 6 6 5 4 3 2 8 8 7 4 4 3 3 4 3 2 5 5 7 14 12 11 9 8 8 8 7 6 7
15 16 15 13 14 13 11 11 9 7 6 6 5 5 4 6 9 7 6 2 3 3 4 3 2 3 5 4 12 12 10 8 7 7 8 7 6 7
13 14 15 14 18 14 9 6 5 7 8 9 5 5 3 8 10 7 4 4 2 3 4 4 3 4 5 6 5 13 12 10 10 11 11 10 8 9
10 12 17 14 12 15 12 9 10 10 10 6 4 4 7 8 11 7 7 4 4 3 5 5 3 4 2 5 5 5 5 10 11 11 10 10 9 4
9 8 9 14 16 16 15 12 11 9 11 9 8 6 6 7 6 6 5 5 4 5 7 5 5 4 4 3 5 5 7 5 5 5 11 11 11 8
11 8 8 14 12 16 15 12 7 10 8 8 8 8 7 7 7 6 6 3 2 1 5 4 3 5 5 4 4 4 5 7 7 7 6 9 13 10
8 10 13 15 15 8 12 13 12 8 8 8 9 6 7 5 6 6 6 5 4 1 1 2 2 2 3 1 2 2 4 5 7 7 5 7 6 5
5 8 10 10 10 8 8 10 7 6 5 7 4 4 6 6 6 5 6 4 4 3 4 4 3 2 1 2 1 3 3 3 3 4 4 4 4 6
7 4 4 6 6 6 7 8 7 5 6 4 5 4 6 8 5 6 7 6 6 5 4 5 5 6 5 4 3 4 4 2 3 5 4 4 5 5
5 4 6 7 8 9 9 9 9 11 8 4 4 2 1 4 6 6 8 8 8 8 7 6 6 4 3 3 7 6 6 5 4 5 4 5 4 5
7 9 9 9 9 10 10 11 12 11 10 8 7 9 10 6 6 6 5 3 4 5 6 7 7 8 8 8 4 17 9 8 5 4 4 5 5 6
8 10 11 11 11 12 12 12 12 11 10 10 11 8 4 1 2 7 10 8 3 6 8 8 4 9 10 10 6 7 20 10 5 4 3 3 2 2
10 9 9 10 11 12 12 12 14 13 13 12 11 10 11 8 9 8 8 9 9 12 11 9 7 13 6 4 1 3 7 17 10 7 5 4 3 3
9 9 9 7 9 11 11 12 12 13 14 13 12 12 12 9 6 4 7 8 10 12 12 2 2 3 2 3 5 6 11 3 13 15 5 8 6 6
9 9 9 9 8 10 10 11 13 12 14 14 14 12 12 12 7 4 7 10 11 11 6 4 3 3 1 9 8 9 8 5 4 8 7 18 17 13
Wind_Direction
196 201 205 301 327 61 43 314 216 321 221 168 122 108 134 129 146 156 150 137 129 127 124 112 105 98 92 86 81 79 68 58 40 38 52 351 4 293
216 179 177 276 291 102 301 270 267 234 285 132 137 146 150 145 173 139 134 143 143 150 132 121 119 107 98 97 93 81 72 68 62 59 63 58 42 329
225 161 161 264 299 215 203 263 278 288 286 64 120 147 118 141 137 124 153 153 161 159 151 139 132 119 108 107 102 95 88 83 72 59 49 41 36 17
191 194 174 194 210 261 264 199 199 342 98 133 128 129 134 141 148 162 170 180 165 179 169 160 150 144 141 135 124 110 97 87 85 80 67 59 56 50
197 192 191 211 193 213 209 226 182 168 162 146 152 161 138 139 149 159 208 105 161 168 178 169 168 166 171 170 164 153 130 96 78 82 80 67 53 54
197 192 194 197 205 197 228 212 198 187 179 216 220 172 166 163 147 176 226 227 152 172 180 181 185 189 189 193 185 179 167 155 141 112 107 102 83 56
219 194 194 193 190 192 188 201 183 189 168 181 241 208 180 161 170 174 194 205 213 175 176 185 188 197 198 200 201 195 193 194 190 184 202 250 301 353
220 203 200 187 189 190 173 188 193 181 192 179 174 204 201 169 173 194 185 178 221 186 164 191 183 200 190 182 197 189 198 207 218 225 225 250 274 288
211 210 203 188 171 180 175 187 213 218 212 177 194 187 176 180 162 180 223 173 187 185 124 220 185 187 145 158 156 167 189 205 222 234 240 243 260 285
209 209 199 187 182 181 191 202 202 201 207 169 182 223 213 181 156 164 157 121 64 147 141 196 197 173 125 131 152 167 176 189 212 227 238 245 247 262
213 213 198 195 182 173 172 196 205 228 204 211 173 213 226 195 138 124 132 138 202 193 185 148 201 142 148 166 181 176 180 191 209 220 223 233 238 250
216 211 195 195 184 170 170 178 205 211 213 163 172 185 193 181 152 139 148 169 187 196 187 158 189 157 162 160 165 176 193 210 209 222 230 231 235 238
195 198 187 153 164 175 177 190 210 209 201 181 180 180 174 165 166 151 154 171 215 220 188 146 174 184 160 148 165 189 184 195 209 224 231 233 230 206
202 197 185 174 191 191 190 213 231 201 201 182 187 186 183 178 175 160 162 206 104 302 164 95 166 154 161 190 184 172 198 206 193 212 209 212 231 229
188 184 169 190 196 188 198 208 210 200 202 197 189 188 183 190 167 159 149 172 147 189 160 123 96 90 102 172 195 172 164 185 193 204 195 182 207 196
119 153 166 158 169 185 183 196 196 203 186 183 184 178 179 188 187 167 157 184 162 191 235 200 178 146 156 242 252 276 218 192 206 200 199 203 204 203
126 113 136 155 160 172 189 192 192 200 184 162 187 204 181 186 179 148 178 183 199 199 196 197 192 196 201 194 240 241 244 265 219 216 178 201 221 220
129 160 175 177 182 182 183 188 190 200 195 167 186 190 206 181 168 176 180 193 196 205 207 186 186 188 211 273 202 242 248 240 242 237 189 188 223 227
194 180 186 190 191 189 193 193 195 195 190 188 176 197 216 209 189 180 176 184 192 188 210 213 210 191 196 217 228 212 226 238 237 240 195 192 195 223
205 195 201 195 193 195 193 193 190 186 188 186 191 201 187 163 215 184 188 195 194 236 230 229 188 192 197 205 199 239 208 221 206 229 218 198 170 83
217 216 202 209 199 195 191 190 188 190 189 191 194 191 207 219 222 197 185 177 191 238 230 222 207 199 182 105 82 282 294 215 217 197 205 195 201 182
213 217 210 212 202 197 190 191 192 190 192 195 196 197 203 208 188 185 194 201 215 235 231 169 106 90 140 153 202 203 247 236 222 234 261 181 179 215
215 211 210 211 211 205 198 193 192 194 195 195 194 199 192 195 159 198 218 253 235 222 179 174 172 131 8 267 220 219 232 233 186 212 239 225 234 238